Location: Dal�� Lhota
(48.7500°N, 14.0167°E)
Time: 01:58:48
(UTC+00:00)

Cosmos 1340 Rocket - Pass Details

Date: 24 September 2020
Orbit: 529 x 559 km, 81.2° (Epoch: 29 October)

Event Time Altitude Azimuth Distance (km) Brightness Sun altitude
Exits shadow 19:15:36 77° 13° (NNE) 563 2.7 -22.9°
Drops below altitude 10° 19:19:22 10° 12° (NNE) 1,829 5.6 -23.5°
Sets 19:21:33 0° 12° (NNE) 2,732 6.6 -23.8°
